Theta_e
322 317 313 314 314 312 313 313 313 315 318 321 323 323 320 317 316 317 318 319 321 322 324 325 325 325 326 325 325 325 326 325 325 326 327 327 326 326 327 327 326 326 326 325 325 325 324 325 324 324 323 323 323 322 322 322 321 319 318 318 317 317 317
318 312 313 315 314 313 313 313 313 313 315 318 321 321 320 319 320 319 319 319 319 318 320 324 325 325 326 326 326 326 326 326 325 325 327 327 325 324 325 327 326 325 326 326 325 325 324 324 323 322 322 322 323 323 322 322 320 318 317 317 316 316 316
315 313 315 316 315 314 312 312 313 314 315 318 319 321 323 323 324 323 321 321 320 318 318 322 323 324 326 327 327 325 325 326 326 325 326 327 326 324 325 327 326 325 326 326 325 325 324 324 323 321 321 322 322 323 323 321 319 318 317 315 315 314 314
314 314 315 315 315 314 313 313 316 318 320 322 321 322 324 323 323 324 323 323 322 320 319 320 322 324 325 326 326 324 324 325 325 325 325 327 327 326 326 327 325 325 325 325 325 324 324 323 322 321 321 321 321 322 322 320 318 317 315 313 311 311 311
314 314 313 313 314 314 315 316 320 322 323 323 322 321 323 322 320 322 324 324 323 322 321 320 320 323 324 324 324 324 323 323 323 324 324 325 326 326 327 326 326 325 325 324 324 324 323 323 322 321 320 320 320 321 320 319 317 315 313 310 308 307 307
314 313 312 312 312 313 315 317 320 322 321 321 320 319 321 321 319 320 322 324 324 323 322 320 318 320 322 322 322 322 322 320 321 322 323 325 324 325 326 326 326 326 325 324 324 323 322 322 321 320 319 318 319 319 319 317 314 313 312 310 308 307 306
315 313 311 310 311 313 315 317 319 320 321 320 319 318 317 318 319 320 322 323 323 322 320 319 317 317 319 320 320 320 320 321 321 322 323 324 323 324 325 325 326 326 325 324 323 323 322 322 320 318 317 317 317 317 317 315 313 311 310 310 308 307 306
320 315 311 309 311 314 316 317 319 320 321 321 319 318 315 314 319 321 321 321 321 320 320 319 316 316 317 319 320 320 321 321 321 322 323 323 323 323 324 325 326 326 325 324 322 322 322 322 321 317 316 315 315 316 315 314 313 311 309 309 308 307 306
323 316 311 309 312 316 316 317 319 320 322 321 321 320 315 313 318 319 319 320 320 320 320 318 316 316 318 319 319 320 321 322 322 323 323 322 322 323 323 325 325 325 325 324 323 322 321 322 320 316 313 313 313 315 315 314 313 310 309 308 308 307 307
322 316 312 311 314 316 316 318 321 322 323 321 321 321 316 313 315 316 317 320 321 320 320 318 316 315 317 319 319 321 322 323 323 323 322 320 321 322 322 323 324 325 325 325 323 322 321 320 317 313 312 312 311 313 314 313 312 310 309 308 308 308 309
323 319 314 312 315 317 317 319 322 322 323 321 322 321 315 310 313 314 315 319 321 321 320 319 316 315 317 319 320 322 322 323 324 323 321 319 320 320 321 322 323 324 324 324 323 322 321 319 315 312 313 313 311 311 312 311 310 309 309 308 308 309 310
325 321 315 314 317 318 317 319 321 322 322 322 322 317 310 308 310 310 310 316 319 319 318 317 315 315 318 319 320 322 323 323 322 321 319 318 318 317 318 318 320 322 323 323 323 322 322 320 316 313 314 313 312 312 312 311 310 310 309 309 308 309 310
325 321 316 316 318 318 317 318 321 322 321 321 318 311 306 306 307 306 307 311 314 315 316 315 314 316 317 317 319 321 322 322 320 318 317 316 316 316 315 315 317 319 321 321 320 321 321 320 319 316 314 313 312 312 312 311 312 311 310 309 308 308 310
325 321 319 318 319 318 317 318 320 320 319 318 311 305 305 306 305 305 305 308 310 312 313 313 314 316 316 315 317 318 321 321 318 315 315 314 314 315 314 314 315 316 317 317 317 317 317 317 318 317 314 313 312 312 311 311 311 312 310 308 308 308 310
325 323 322 321 319 317 316 317 317 317 315 311 307 306 307 306 305 306 305 306 308 309 311 311 313 315 315 315 314 314 317 319 316 314 314 314 314 314 314 314 314 315 315 315 315 315 315 315 315 316 315 314 313 313 312 311 312 313 311 309 308 310 311
326 324 324 323 320 316 317 317 314 312 310 307 307 309 309 308 308 307 306 305 306 307 309 310 311 312 312 311 309 309 312 315 315 313 312 312 312 313 314 314 314 314 314 315 315 315 315 315 315 315 315 315 314 313 312 312 314 314 313 311 311 310 311
324 323 324 324 320 317 318 317 313 310 308 307 311 313 312 311 311 311 309 306 305 306 308 308 308 308 307 307 306 305 308 310 310 309 309 308 308 309 311 312 313 314 314 314 314 314 314 314 314 314 314 315 314 313 313 314 315 315 313 313 312 311 310
324 323 322 322 320 318 319 318 313 309 308 310 313 315 313 313 313 314 313 309 305 305 307 308 308 308 307 307 306 306 307 308 308 308 308 308 308 308 309 309 311 312 312 312 311 312 313 314 315 314 314 315 314 314 314 315 315 314 313 313 312 311 311
324 323 321 320 320 319 319 319 314 310 310 313 315 315 314 313 314 314 314 313 309 307 308 308 309 310 310 309 308 310 311 311 311 310 310 310 310 311 310 310 310 310 311 311 312 314 315 315 315 315 314 315 315 315 315 315 314 314 314 313 313 313 312
323 323 322 321 320 320 319 318 315 312 313 314 315 316 314 313 314 314 314 314 313 312 311 309 309 311 312 311 311 312 314 315 314 313 312 311 312 313 312 312 312 311 312 313 313 315 315 315 315 315 315 315 315 315 315 315 314 314 314 313 313 313 313
323 323 322 321 321 321 320 318 315 315 316 315 315 317 315 312 314 315 314 314 314 314 314 311 309 311 313 313 312 312 314 315 315 314 313 312 312 313 313 313 313 313 313 312 312 313 314 315 315 315 315 315 316 316 315 314 314 314 314 314 314 313 313
323 323 323 322 321 321 321 319 317 318 318 316 316 317 316 313 314 315 314 314 314 315 315 313 310 310 311 311 312 312 313 314 314 314 313 312 312 312 311 311 312 312 313 312 312 312 313 313 314 314 315 315 315 316 315 314 314 314 314 314 314 314 313
323 323 324 323 322 320 319 319 319 318 318 318 317 318 317 314 314 315 315 314 314 314 315 315 313 312 311 310 310 310 312 313 313 313 312 312 311 311 311 310 310 311 311 311 311 311 311 312 312 313 314 314 315 316 315 315 314 313 314 314 313 313 313
323 323 322 322 322 321 319 319 320 319 319 319 318 319 318 317 315 315 315 315 315 315 315 315 314 314 313 312 311 310 311 312 313 313 313 312 311 311 311 311 310 310 310 310 310 310 310 310 311 313 314 315 316 316 316 315 315 314 314 314 314 313 313
323 323 322 322 322 321 319 319 320 321 321 321 320 319 319 318 317 316 316 315 316 316 316 316 315 314 314 314 313 313 312 312 312 312 313 313 312 312 311 311 310 310 309 310 310 310 309 310 311 313 314 315 316 316 316 316 315 315 314 314 314 314 313
321 320 320 321 321 321 321 321 321 321 321 322 322 320 320 319 319 318 317 316 316 316 317 317 316 315 314 314 315 315 314 314 313 313 313 313 312 312 311 311 311 310 310 310 310 311 311 311 313 314 315 316 316 316 316 316 315 315 315 315 315 315 315
318 318 318 319 321 321 322 322 321 320 320 320 321 322 321 320 320 320 319 318 317 317 317 318 318 316 315 314 315 315 315 315 315 314 314 314 314 313 312 311 311 311 311 311 312 312 313 314 315 316 316 316 316 315 315 315 315 315 315 315 315 315 315
315 315 315 317 318 320 320 321 321 321 320 320 320 321 321 321 320 320 320 320 319 318 318 318 318 318 318 316 316 315 315 315 315 315 315 315 315 315 314 313 312 311 312 313 313 314 315 316 317 317 317 316 316 315 315 315 315 315 315 315 315 315 315
313 313 313 314 315 316 317 318 319 320 320 320 320 319 319 319 319 320 320 320 321 320 320 319 319 319 319 319 318 317 317 316 316 315 316 316 316 317 317 317 316 315 315 316 316 317 317 318 318 318 318 318 316 315 315 315 315 315 315 315 315 315 315
312 313 314 314 314 314 314 315 316 317 317 318 318 318 318 317 317 318 319 319 319 319 320 320 319 319 319 320 320 319 319 318 317 317 316 317 317 317 317 317 317 317 317 317 318 318 318 319 318 317 316 317 317 316 315 315 315 315 315 315 314 315 315
309 310 311 312 313 314 314 314 314 314 315 315 316 315 315 316 316 316 317 317 317 317 317 317 317 318 318 319 319 319 319 319 319 318 318 317 317 317 318 318 317 317 316 316 317 318 318 318 318 317 317 317 317 316 315 315 315 315 314 313 314 315 315
305 305 305 306 307 309 311 311 312 312 312 313 314 314 314 315 315 315 315 315 315 316 315 315 315 316 317 317 317 317 318 318 318 318 317 317 317 317 317 317 317 317 317 317 317 318 317 317 317 317 317 317 316 315 315 314 315 315 314 313 314 314 313
300 300 300 301 301 302 304 305 306 307 308 309 310 311 312 313 313 314 314 315 315 315 314 313 313 314 315 315 316 316 316 316 317 316 316 316 317 317 317 317 317 317 317 318 318 319 318 318 317 316 316 316 315 315 315 314 315 315 314 313 312 311 310
299 299 299 299 299 299 300 300 301 302 303 303 303 304 305 307 308 309 310 312 312 313 314 314 314 314 314 314 315 315 316 315 315 315 316 316 317 317 317 317 317 318 318 318 318 318 318 318 317 316 315 315 314 315 314 313 313 313 312 311 310 309 308
299 299 299 299 299 299 299 299 299 299 299 299 299 299 300 300 301 302 303 304 306 308 310 312 313 313 314 314 314 314 314 314 313 313 315 315 316 315 315 315 316 317 318 318 318 318 318 317 317 316 315 314 314 315 313 311 311 311 310 309 308 307 307
299 299 299 298 298 298 299 299 299 299 299 298 298 298 298 299 299 300 300 300 300 302 304 306 309 311 312 313 313 314 314 314 313 312 313 314 314 313 313 313 314 315 316 317 317 317 317 316 316 315 314 314 314 313 311 310 310 309 308 307 307 307 306
298 298 298 298 298 298 298 298 298 298 298 299 299 299 299 299 299 299 300 300 300 300 300 302 304 307 309 310 312 312 314 314 314 313 312 312 312 312 313 313 313 314 316 316 316 317 317 315 314 314 313 314 313 310 309 310 309 308 308 308 307 306 306
Wind_Speed
17 15 14 13 11 10 8 6 5 4 4 3 3 3 2 2 6 8 8 8 8 7 6 5 6 7 7 8 9 10 10 10 10 10 10 12 14 16 16 16 13 10 12 16 16 17 18 19 17 16 16 15 13 12 9 7 7 8 8 7 6 6 6
15 15 16 14 12 10 8 7 6 5 5 5 5 4 2 3 5 6 8 9 8 6 6 5 6 6 7 9 10 10 10 10 11 11 11 11 12 14 15 15 13 11 14 15 14 16 19 22 21 20 19 18 16 13 9 7 8 8 8 7 7 7 7
17 17 17 15 13 11 9 8 7 6 5 5 5 4 3 3 4 5 5 6 6 6 6 5 4 4 6 8 8 8 8 8 10 11 11 10 11 13 14 14 13 13 16 17 17 18 20 21 23 23 21 20 19 16 11 8 8 7 6 6 4 4 5
19 19 18 16 14 12 11 10 9 7 6 5 5 5 5 4 5 5 5 5 5 5 5 4 3 3 5 7 8 7 8 8 9 10 10 10 11 12 13 14 12 12 14 16 18 21 21 22 24 24 21 19 18 17 14 10 7 6 5 5 4 2 2
19 18 18 17 15 14 13 11 9 8 7 6 6 7 7 6 5 5 6 5 5 4 4 4 4 4 6 7 7 7 8 8 7 8 9 10 10 11 13 14 11 12 13 13 16 20 20 21 24 25 23 20 18 18 16 13 8 4 4 6 8 5 3
18 17 16 16 15 14 12 10 9 8 7 5 5 7 8 7 6 6 7 7 6 6 5 5 5 6 7 7 6 6 7 7 6 7 8 9 9 9 11 13 13 15 16 15 16 19 19 19 22 25 24 21 20 21 18 13 10 6 3 5 9 7 4
16 15 15 15 15 14 11 8 7 6 4 3 3 5 6 8 9 8 8 8 8 7 7 6 5 5 7 6 5 6 6 6 6 7 8 9 9 9 10 12 15 18 20 18 18 20 19 19 22 25 25 22 19 20 18 13 10 7 5 5 7 6 4
14 14 14 15 15 13 9 7 6 5 3 2 2 2 4 8 10 10 9 8 8 8 8 6 4 4 6 6 5 6 7 7 7 8 9 9 9 10 10 12 15 19 20 19 21 21 18 18 20 21 24 25 21 18 16 14 11 5 3 5 6 6 6
14 15 16 16 15 12 8 6 5 5 5 4 3 1 3 7 9 9 9 8 9 10 9 7 5 6 7 7 6 6 7 7 8 9 11 11 11 10 10 12 15 19 19 20 20 18 15 18 19 19 20 21 21 21 18 14 12 8 4 4 4 7 8
15 15 16 17 15 11 8 6 6 7 7 6 5 4 4 7 7 6 8 11 12 10 9 7 5 7 8 8 8 8 8 9 10 13 14 13 12 11 11 12 14 18 20 20 17 15 16 19 20 19 17 13 13 19 19 17 14 9 6 4 3 6 8
15 14 15 17 14 10 8 8 9 9 9 8 7 6 6 8 8 6 8 13 15 12 10 8 6 7 9 10 10 10 11 11 13 15 15 13 13 13 13 13 14 16 19 19 17 16 18 19 18 19 19 14 9 8 11 15 15 10 7 6 5 5 6
16 14 15 16 13 10 8 8 9 9 9 9 8 7 6 8 9 8 10 14 16 14 12 9 7 9 10 11 12 12 13 14 14 14 14 13 13 12 13 14 14 16 19 19 18 17 18 19 18 18 20 18 12 6 4 9 12 10 10 8 6 5 3
17 15 16 15 12 10 8 8 8 9 9 10 9 6 7 9 10 11 12 14 15 13 11 9 10 11 12 12 13 14 16 16 15 14 13 13 12 12 13 14 14 15 17 17 17 17 17 18 17 18 20 21 17 12 9 8 7 8 11 10 7 6 4
16 16 16 15 12 10 8 8 9 9 9 9 8 7 9 9 10 11 12 13 13 12 10 9 11 13 13 12 13 14 17 18 17 15 15 14 13 13 14 14 15 17 17 17 16 15 14 13 13 15 19 22 21 17 15 12 8 7 10 11 8 6 4
17 16 15 14 12 11 9 8 9 8 8 8 7 8 8 9 10 10 10 12 11 11 9 8 12 14 14 13 13 13 17 19 18 17 17 16 16 16 16 16 16 17 16 15 14 12 11 10 10 11 12 19 22 20 18 16 10 7 9 11 9 7 5
18 16 15 13 13 12 10 8 8 8 7 8 8 7 7 8 9 9 10 11 11 10 9 10 12 13 13 13 14 14 17 18 19 18 17 18 19 19 20 19 18 17 15 14 13 12 11 10 10 9 8 13 21 22 19 15 10 8 9 10 10 9 6
17 16 15 15 14 12 10 8 8 8 8 9 9 7 6 7 8 7 7 9 12 11 11 12 12 13 13 13 14 16 17 18 17 16 16 17 19 20 21 21 21 20 18 16 15 14 14 13 11 11 9 13 19 21 17 13 9 8 10 10 10 9 6
15 17 16 14 14 12 10 8 8 8 9 10 9 8 6 5 6 5 4 5 10 12 12 12 12 14 14 14 15 16 18 18 17 16 17 18 19 19 20 21 21 21 20 19 17 16 15 14 12 12 12 14 17 18 16 14 12 10 10 9 9 10 9
17 18 15 14 14 12 10 8 8 9 10 10 10 9 7 6 7 6 3 3 5 9 10 10 12 15 15 14 16 17 18 18 16 17 18 18 18 19 20 20 20 20 19 18 18 17 15 14 14 13 14 14 14 14 14 15 14 12 11 9 9 10 10
17 17 16 16 15 12 10 8 9 9 11 11 12 11 9 8 8 8 6 4 3 4 4 6 12 17 16 14 15 17 18 17 16 16 17 18 18 19 21 21 19 19 18 16 15 16 16 15 15 15 14 14 13 14 14 15 14 13 12 11 11 11 10
17 18 18 17 15 14 13 10 10 11 12 13 13 11 10 9 10 9 7 6 5 4 2 3 11 18 18 15 16 17 18 18 17 16 16 17 19 20 20 20 19 18 17 15 15 15 16 17 17 17 16 14 14 14 15 15 15 15 14 14 14 13 12
18 19 18 16 15 16 15 12 11 13 13 14 14 12 10 10 11 11 10 8 8 8 6 4 6 14 18 17 17 18 18 19 19 18 17 18 20 21 20 20 20 19 18 18 17 17 17 17 18 18 17 16 15 15 16 17 17 17 16 17 17 16 15
18 18 17 15 15 15 15 14 15 17 16 15 14 13 12 13 13 13 12 11 10 11 11 8 6 8 11 14 15 17 19 21 21 20 19 19 20 22 22 20 20 20 20 20 20 20 20 19 19 19 18 18 17 17 17 18 19 19 19 18 19 18 18
13 13 12 12 14 15 15 16 18 19 17 15 14 13 12 14 15 15 14 14 13 13 13 13 11 9 8 9 11 13 16 20 23 22 21 20 20 21 21 21 20 20 20 20 21 21 21 21 21 21 20 19 19 18 18 19 21 22 22 21 21 21 20
9 8 7 9 11 13 14 17 21 21 17 14 13 13 12 12 14 15 16 16 16 14 13 14 15 14 12 11 12 13 14 17 20 23 24 24 23 23 23 23 22 22 21 21 21 21 21 22 23 23 23 22 21 20 20 20 21 23 24 23 23 22 21
12 10 7 6 6 6 8 12 15 16 16 14 12 12 13 13 13 14 15 16 17 16 15 14 15 17 17 16 15 15 16 16 18 20 22 24 24 25 25 25 24 23 23 22 22 21 22 23 24 25 25 24 23 22 22 22 22 23 24 23 23 22 21
14 13 10 8 7 7 7 7 6 7 10 13 12 13 15 15 15 16 16 16 17 18 18 17 16 17 19 20 20 20 20 20 21 22 22 23 24 25 25 26 26 25 25 25 24 24 23 24 24 25 24 24 24 23 23 22 23 24 25 24 23 22 21
15 14 12 10 9 8 7 7 6 6 6 8 9 10 11 13 14 17 19 19 20 20 20 20 19 18 19 21 22 23 23 24 25 26 26 26 26 25 26 27 28 28 28 28 27 26 25 25 25 25 24 23 24 24 24 23 24 25 26 25 24 22 20
11 11 11 10 9 8 8 7 7 7 7 7 7 7 7 7 8 11 14 17 20 22 22 23 23 23 23 23 23 24 25 27 28 29 29 29 29 28 29 30 31 31 31 30 28 28 27 28 28 27 25 24 25 26 26 25 25 27 27 26 25 22 20
6 5 6 6 6 6 6 5 5 6 6 6 7 7 8 8 8 8 9 11 14 17 18 20 22 24 26 27 27 27 27 28 30 30 31 32 31 32 32 33 34 35 34 32 31 30 30 31 32 30 27 28 29 29 29 28 26 28 29 27 25 22 20
5 5 6 7 7 7 7 7 7 7 7 7 8 8 9 10 10 11 11 11 12 13 14 15 16 19 22 25 27 28 29 30 31 31 32 33 33 34 34 34 36 36 35 33 33 33 33 34 36 33 30 31 32 31 31 29 27 29 28 24 22 21 20
7 8 8 9 10 12 12 13 13 12 12 13 13 13 13 14 14 14 14 14 15 15 17 17 16 17 18 19 22 24 25 28 29 30 31 32 33 34 35 36 37 37 36 35 34 34 33 34 38 37 32 31 32 32 32 29 27 28 26 21 19 19 17
11 11 12 13 13 14 16 17 18 18 18 18 19 19 19 20 20 19 19 19 19 19 20 21 20 20 19 20 21 22 24 25 26 28 29 30 31 33 34 36 37 37 39 38 37 36 35 36 39 38 33 32 33 33 31 27 24 24 22 19 18 17 15
13 13 14 15 15 16 17 18 20 21 23 23 24 25 25 25 26 26 25 24 24 23 23 23 24 24 24 24 23 23 25 26 26 26 27 28 29 29 31 32 33 34 37 38 38 38 38 39 40 39 37 36 34 31 27 23 21 20 19 17 17 17 16
16 16 17 17 17 17 18 18 19 20 22 23 24 25 26 27 28 29 30 29 29 28 28 27 27 27 28 28 26 26 27 27 27 28 29 30 30 30 29 29 30 30 32 35 37 38 38 38 40 40 39 35 29 25 24 21 19 19 18 18 18 17 14
17 17 18 19 19 19 19 19 19 19 19 20 21 22 23 24 26 28 29 30 30 30 30 31 30 29 29 30 28 26 26 27 28 29 31 31 31 32 32 31 30 29 29 32 34 36 36 37 39 39 34 28 23 22 23 22 20 19 19 18 17 15 12
18 19 19 19 19 20 20 20 20 19 19 19 19 19 20 21 23 25 27 29 29 29 29 30 31 31 30 30 29 27 26 27 28 29 31 32 32 32 33 33 31 29 29 30 32 33 32 32 35 35 30 25 23 21 22 22 21 20 19 18 16 13 11
Wind_Direction
174 170 169 169 166 163 164 168 176 192 211 234 269 292 321 143 162 168 166 157 148 142 143 154 168 182 191 192 196 200 204 209 206 205 209 212 205 196 190 188 191 194 190 190 188 177 157 139 134 133 132 133 136 141 144 131 99 78 78 85 97 110 115
177 171 165 163 160 156 158 167 178 194 213 228 246 261 256 149 161 171 171 165 159 158 158 163 175 183 185 189 194 198 200 202 203 203 208 215 214 207 197 189 188 182 180 187 190 182 165 148 143 144 143 144 147 152 154 129 100 81 76 84 94 103 108
179 175 167 163 161 161 168 174 179 191 206 219 223 215 191 168 176 186 186 172 166 176 179 175 180 185 190 197 200 198 193 196 202 200 204 213 213 210 202 192 189 181 177 183 187 182 173 161 154 151 149 152 154 158 159 135 111 93 75 73 85 100 103
179 177 170 166 167 172 179 180 178 186 201 217 217 207 198 193 191 196 203 193 177 180 187 186 190 193 198 205 208 204 197 196 198 199 203 208 207 206 200 194 197 196 190 189 188 186 180 168 157 151 151 156 153 151 153 142 117 95 69 55 54 67 74
181 179 174 170 174 180 183 179 178 191 211 220 220 219 219 220 211 196 195 198 193 186 198 222 222 199 192 200 206 207 207 203 197 199 200 198 203 208 201 194 198 204 206 200 189 188 187 175 161 152 154 157 151 147 152 148 131 107 65 56 54 50 46
184 180 178 177 179 184 184 178 182 198 211 219 226 228 229 231 224 202 187 191 198 199 214 231 226 198 184 185 192 200 209 208 200 198 193 190 199 207 204 197 194 197 199 197 190 186 185 178 164 155 155 158 152 149 154 156 148 140 117 65 52 46 55
186 182 185 186 182 182 180 177 187 198 198 203 219 224 224 216 206 193 183 188 199 208 218 223 215 201 188 180 177 181 192 198 192 183 177 183 188 191 198 196 193 195 192 188 188 183 179 176 165 157 157 156 152 153 158 164 163 147 122 93 62 55 77
191 187 190 190 183 180 179 177 189 204 212 214 208 210 208 196 189 183 182 191 198 204 217 216 190 179 183 181 174 171 180 183 173 161 159 166 170 174 188 192 192 193 188 184 186 184 184 182 174 169 164 157 153 159 168 171 172 164 111 97 83 85 103
196 192 192 188 182 179 180 183 200 220 233 244 245 245 207 193 188 178 177 189 196 199 210 206 162 153 168 170 167 171 176 169 154 148 149 148 146 151 167 179 184 187 186 187 188 189 190 186 183 181 176 167 160 165 175 179 177 177 149 101 88 110 121
196 194 191 188 184 182 181 194 216 224 235 249 253 250 224 203 196 180 170 180 190 195 201 195 158 146 155 157 159 165 165 157 150 151 149 142 136 134 142 156 169 179 185 189 189 187 180 180 184 183 178 179 169 165 172 181 184 182 162 138 116 131 137
201 200 196 193 190 184 184 202 218 225 234 241 249 258 234 203 195 188 177 179 186 193 198 199 178 151 151 152 154 158 158 158 158 158 154 147 138 132 131 139 152 168 179 184 184 180 177 179 187 186 182 183 179 166 166 174 182 187 179 165 149 150 156
205 204 199 197 192 185 192 210 221 228 235 241 253 257 224 192 181 175 175 180 188 196 200 200 182 160 157 155 153 157 161 164 165 161 158 154 146 139 134 134 144 160 170 177 182 184 187 191 191 190 190 188 191 212 188 166 174 184 191 193 177 171 189
204 202 197 196 192 190 200 219 228 234 241 249 254 233 187 172 168 164 168 178 187 197 202 193 173 169 169 160 158 163 166 170 170 165 161 159 155 151 143 134 136 149 158 165 173 181 190 198 200 198 197 194 196 211 212 190 188 185 187 200 209 210 223
199 195 194 195 194 195 204 222 232 238 246 250 236 193 168 163 165 162 164 175 185 196 203 188 173 177 178 170 168 170 173 177 176 170 167 167 165 161 154 142 136 141 148 152 155 162 168 176 187 193 198 200 201 208 214 209 207 195 186 193 210 224 220
196 194 194 195 197 199 204 217 226 233 240 231 199 173 166 167 170 168 168 173 181 189 195 183 174 179 182 181 179 177 179 183 182 177 176 178 178 174 167 159 148 145 153 159 160 164 168 169 174 178 190 202 206 210 215 216 220 221 203 197 204 211 189
190 193 199 203 202 201 205 212 215 217 216 194 167 151 151 155 156 157 163 173 177 178 177 173 171 175 179 183 182 178 181 187 187 185 184 184 186 186 183 178 171 165 169 179 184 191 202 209 209 202 190 197 206 209 211 218 233 234 215 208 211 211 185
188 192 202 208 208 206 208 211 206 202 194 174 154 136 133 140 140 134 143 166 173 170 169 168 167 169 172 176 178 175 178 186 190 189 185 180 179 184 188 189 187 187 190 197 202 206 211 214 213 212 196 185 195 202 204 212 224 221 211 208 209 209 197
200 201 202 203 206 208 209 212 208 198 186 170 156 149 149 154 158 147 126 157 171 170 171 172 168 168 170 171 172 171 173 179 183 182 180 176 170 172 180 185 187 190 195 200 204 205 203 198 191 191 189 183 190 200 207 212 213 210 206 199 191 194 196
207 210 207 198 199 203 208 219 217 197 182 174 172 172 175 180 184 185 175 167 170 167 174 182 175 174 178 175 171 169 171 177 180 179 180 179 174 172 174 177 180 185 190 196 201 201 199 196 192 192 195 197 204 213 215 211 207 206 207 198 187 189 195
211 212 208 202 201 200 206 225 223 196 180 182 186 187 191 192 191 194 201 212 199 166 174 192 185 185 188 184 179 177 178 183 188 187 187 188 183 179 178 181 184 187 191 198 205 207 205 203 203 204 206 210 218 224 219 209 204 204 207 204 198 195 193
210 206 204 205 205 199 196 205 213 203 190 188 192 192 194 198 196 197 208 222 222 210 213 210 192 191 194 190 188 190 190 194 199 200 199 198 194 190 187 189 195 198 201 207 214 219 217 214 214 215 215 212 213 219 219 214 209 207 206 207 207 203 197
207 204 202 201 202 200 192 185 198 208 203 196 197 196 197 201 199 201 211 221 226 227 235 249 208 197 199 200 198 200 202 205 208 209 209 206 203 202 200 199 202 206 211 214 218 225 227 227 228 229 227 219 213 214 216 217 217 213 207 205 208 208 206
205 203 200 194 196 203 197 188 198 209 208 202 201 201 205 206 202 204 210 214 222 228 231 243 248 219 211 212 211 210 210 212 214 215 217 216 213 211 211 211 211 214 218 220 222 225 228 230 232 233 234 232 228 225 223 222 222 218 214 210 210 211 211
200 202 202 200 204 208 206 202 205 205 202 202 203 203 209 211 208 210 213 214 219 227 230 235 242 242 237 230 227 224 218 217 218 219 223 227 227 224 223 224 225 226 227 228 227 227 227 228 228 228 230 231 234 236 237 233 229 226 225 222 219 219 219
165 170 182 196 207 212 212 212 212 206 198 195 201 208 214 216 214 215 218 219 220 224 230 234 235 239 243 243 244 244 236 228 225 225 227 230 233 236 236 237 238 238 237 235 232 230 229 227 225 225 226 228 232 239 242 242 238 235 234 232 230 229 229
122 119 126 147 175 192 200 206 211 211 204 199 202 209 215 220 222 224 226 226 227 229 233 238 237 237 239 241 245 248 247 244 239 235 235 235 236 239 241 242 243 243 243 242 239 235 232 229 228 226 226 229 234 238 241 240 239 238 237 236 235 234 233
113 111 110 117 140 154 159 170 182 193 201 210 217 217 218 223 226 230 234 234 235 236 238 242 245 241 238 238 242 246 248 248 246 245 245 244 244 245 246 247 246 246 247 246 245 241 237 232 229 227 228 231 236 239 240 240 240 238 237 237 237 236 238
117 118 117 120 133 143 147 157 161 158 173 202 220 222 225 231 235 239 242 241 241 241 241 243 247 248 245 242 240 243 247 247 247 247 248 249 249 249 251 251 251 250 249 247 247 246 243 240 235 231 233 237 239 242 244 244 244 242 239 237 237 239 244
127 127 129 130 131 134 139 147 160 169 176 189 198 200 205 217 233 245 249 250 250 248 246 245 247 248 251 250 247 246 246 246 247 247 247 249 249 249 250 250 249 248 248 247 246 246 246 247 242 236 237 242 246 248 249 247 245 242 238 237 239 242 247
154 157 161 163 160 158 157 158 169 181 193 204 207 210 214 213 217 227 237 246 253 255 253 250 249 250 250 252 252 250 249 249 249 248 248 249 249 249 250 251 249 247 243 241 242 244 247 249 245 239 239 246 250 252 251 249 245 239 235 234 236 241 245
219 225 227 227 228 228 224 225 230 230 233 233 228 229 233 231 230 232 232 235 243 252 254 253 255 256 254 253 254 254 253 254 254 253 253 252 252 252 253 256 258 254 245 240 241 242 245 250 252 248 245 249 252 251 251 249 243 237 233 233 235 237 239
264 262 258 253 250 248 247 246 248 248 249 248 244 243 244 242 240 239 240 242 246 250 251 249 251 256 257 259 260 260 258 256 256 255 255 255 255 255 256 258 261 260 255 252 250 246 248 255 257 253 248 248 250 250 250 249 242 237 236 236 234 232 230
289 285 279 273 267 262 259 257 256 256 256 256 254 253 252 251 249 245 244 246 248 250 253 252 248 247 250 255 261 265 265 262 260 259 258 257 256 257 257 258 259 260 260 260 258 256 257 259 257 252 247 246 246 247 247 242 234 230 229 227 224 222 220
299 297 292 287 282 277 272 269 266 265 264 263 261 260 259 258 257 254 251 250 249 249 251 252 249 246 246 250 255 261 265 266 267 267 268 267 265 263 262 261 260 260 261 262 262 261 260 260 258 253 247 243 240 239 236 228 221 218 215 211 211 211 213
298 297 295 293 291 288 286 282 279 276 273 271 269 267 265 264 263 261 258 255 254 252 251 252 252 249 247 248 252 258 263 266 269 271 273 274 274 273 273 272 268 265 263 264 264 263 262 261 260 254 247 240 233 226 222 217 214 211 204 201 204 207 210
298 296 295 292 290 289 288 287 287 286 283 279 276 272 270 267 266 265 263 260 258 256 254 254 254 253 251 249 249 254 260 263 266 270 272 273 274 277 279 280 278 273 267 265 264 264 264 260 255 251 243 231 218 212 210 206 202 199 196 197 203 206 210
302 300 299 296 293 290 289 288 289 288 287 284 281 277 273 269 266 266 266 265 263 261 259 257 255 254 254 252 249 250 256 260 262 266 270 271 273 275 278 281 282 279 274 270 266 266 264 257 250 245 234 215 203 200 197 195 193 193 194 197 204 210 218